Weather History for Billings, MT

Change the Weather History Date:

Tuesday, December 4, 2012

  Actual Average Record
Temperature  
Mean Temperature 40 °F 28 °F  
Max Temperature 51 °F 37 °F 65 °F (1979)
Min Temperature 28 °F 20 °F -11 °F (1972)
Degree Days  
Heating Degree Days 25 37  
Month to date heating degree days 75 145  
Since 1 July heating degree days 1457 1773  
Cooling Degree Days 0 0  
Month to date cooling degree days 0 0  
Year to date cooling degree days 958 636  
Moisture  
Dew Point 20 °F    
Average Humidity 46    
Maximum Humidity 59    
Minimum Humidity 33    
Precipitation  
Precipitation 0.00 in 0.02 in 0.97 in (1978)
Month to date precipitation T 0.07  
Year to date precipitation 6.86 13.23  
Snow  
Snow 0.00 in 0.20 in 13.70 in (1978)
Month to date snowfall 0.0 1.0  
Since 1 July snowfall 11.6 12.7  
Snow Depth 0.00 in    
Sea Level Pressure  
Sea Level Pressure 30.04 in    
Wind  
Wind Speed 9 mph (WSW)    
Max Wind Speed 13 mph    
Max Gust Speed 13 mph    
Visibility 10 miles    
Events      
T = Trace of Precipitation, MM = Missing Value Source: NWS Daily Summary

Daily Weather History Graph

Daily Weather History Graph

Search for Another Location

Airport:

Trip Planner

Search our weather history database for the weather conditions in past years. The results will help you decide how hot, cold, wet, or windy it might be!

Date:

Astronomy

Dec. 04, 2012 Rise Set
Actual Time 7:38 AM MST 4:30 PM MST
Civil Twilight 7:04 AM MST 5:04 PM MST
Nautical Twilight 6:27 AM MST 5:41 PM MST
Astronomical Twilight 5:51 AM MST 6:17 PM MST
Moon 10:33 PM MST (12/4) 11:23 AM MST (12/4)
Length of Visible Light 9h 59m
Length of Day
8h 51m
Waning Gibbous, 69% of the Moon is Illuminated
Dec 4
Waning Gibbous
Dec 6
Last Quarter
Dec 13
New
Dec 19
First Quarter
Dec 28
Full

Hourly Weather History & Observations

Time (MST) Temp. Windchill Dew Point Humidity Pressure Visibility Wind Dir Wind Speed Gust Speed Precip Events Conditions
12:53 AM 39.0 °F 31.4 °F 17.1 °F 41% 30.15 in 10.0 mi WSW 12.7 mph - N/A   Clear
1:53 AM 36.0 °F 27.5 °F 17.1 °F 46% 30.17 in 10.0 mi WSW 12.7 mph - N/A   Clear
2:53 AM 32.0 °F 23.6 °F 16.0 °F 52% 30.18 in 10.0 mi SW 10.4 mph - N/A   Clear
3:53 AM 30.9 °F 22.8 °F 16.0 °F 54% 30.16 in 10.0 mi SW 9.2 mph - N/A   Clear
4:53 AM 30.0 °F 21.1 °F 16.0 °F 56% 30.15 in 10.0 mi SSW 10.4 mph - N/A   Clear
5:53 AM 33.1 °F 24.9 °F 17.1 °F 52% 30.13 in 10.0 mi WSW 10.4 mph - N/A   Clear
6:53 AM 32.0 °F 26.4 °F 17.1 °F 54% 30.12 in 10.0 mi WSW 5.8 mph - N/A   Clear
7:53 AM 32.0 °F 27.5 °F 19.0 °F 59% 30.12 in 10.0 mi West 4.6 mph - N/A   Scattered Clouds
8:53 AM 32.0 °F - 19.0 °F 59% 30.12 in 10.0 mi Calm Calm - N/A   Overcast
9:53 AM 39.0 °F 34.8 °F 19.9 °F 46% 30.07 in 10.0 mi WSW 5.8 mph - N/A   Overcast
10:53 AM 37.4 °F 34.9 °F 21.2 °F 52% 30.01 in 10.0 mi ENE 3.5 mph - N/A   Overcast
11:53 AM 37.9 °F - 19.9 °F 48% 30.04 in 10.0 mi Calm Calm - N/A   Overcast
12:53 PM 45.0 °F - 23.0 °F 42% 30.01 in 10.0 mi Calm Calm - N/A   Mostly Cloudy
1:53 PM 48.0 °F - 21.0 °F 34% 29.99 in 10.0 mi SW 5.8 mph - N/A   Partly Cloudy
2:53 PM 48.9 °F - 23.0 °F 36% 29.98 in 10.0 mi SW 9.2 mph - N/A   Partly Cloudy
3:53 PM 50.0 °F - 23.0 °F 35% 29.99 in 10.0 mi WSW 12.7 mph - N/A   Scattered Clouds
4:53 PM 48.0 °F - 21.0 °F 34% 29.99 in 10.0 mi WSW 13.8 mph - N/A   Scattered Clouds
5:53 PM 48.0 °F - 21.0 °F 34% 29.98 in 10.0 mi WSW 11.5 mph - N/A   Partly Cloudy
6:53 PM 46.9 °F - 21.9 °F 37% 29.97 in 10.0 mi SW 8.1 mph - N/A   Clear
7:53 PM 46.9 °F - 23.0 °F 39% 29.95 in 10.0 mi WSW 15.0 mph - N/A   Clear
8:53 PM 46.9 °F - 21.0 °F 36% 29.94 in 10.0 mi WSW 13.8 mph - N/A   Clear
9:53 PM 46.9 °F - 21.9 °F 37% 29.92 in 10.0 mi WSW 13.8 mph - N/A   Clear
10:53 PM 45.0 °F 40.6 °F 21.9 °F 40% 29.92 in 10.0 mi SW 8.1 mph - N/A   Clear
11:53 PM 45.0 °F 39.7 °F 23.0 °F 42% 29.90 in 10.0 mi WSW 10.4 mph - N/A   Clear